Year,Month,Day,Hour,Minute,Value (Times are PST for temperature in C)
2013,04,24,00,00,4.60
2013,04,24,00,01,4.60
2013,04,24,00,02,4.60
2013,04,24,00,03,4.60
2013,04,24,00,04,4.60
2013,04,24,00,05,4.60
2013,04,24,00,06,4.60
2013,04,24,00,07,4.50
2013,04,24,00,08,4.50
2013,04,24,00,09,4.50
2013,04,24,00,10,4.50
2013,04,24,00,11,4.50
2013,04,24,00,12,4.50
2013,04,24,00,13,4.50
2013,04,24,00,14,4.50
2013,04,24,00,15,4.50
2013,04,24,00,16,4.50
2013,04,24,00,17,4.40
2013,04,24,00,18,4.40
2013,04,24,00,19,4.40
2013,04,24,00,20,4.40
2013,04,24,00,21,4.40
2013,04,24,00,22,4.40
2013,04,24,00,23,4.40
2013,04,24,00,24,4.40
2013,04,24,00,25,4.40
2013,04,24,00,26,4.40
2013,04,24,00,27,4.40
2013,04,24,00,28,4.40
2013,04,24,00,29,4.40
2013,04,24,00,30,4.40
2013,04,24,00,31,4.40
2013,04,24,00,32,4.40
2013,04,24,00,33,4.30
2013,04,24,00,34,4.30
2013,04,24,00,35,4.30
2013,04,24,00,36,4.30
2013,04,24,00,37,4.30
2013,04,24,00,38,4.30
2013,04,24,00,39,4.30
2013,04,24,00,40,4.30
2013,04,24,00,41,4.30
2013,04,24,00,42,4.30
2013,04,24,00,43,4.30
2013,04,24,00,44,4.30
2013,04,24,00,45,4.30
2013,04,24,00,46,4.30
2013,04,24,00,47,4.30
2013,04,24,00,48,4.30
2013,04,24,00,49,4.30
2013,04,24,00,50,4.20
2013,04,24,00,51,4.20
2013,04,24,00,52,4.20
2013,04,24,00,53,4.20
2013,04,24,00,54,4.20
2013,04,24,00,55,4.20
2013,04,24,00,56,4.20
2013,04,24,00,57,4.20
2013,04,24,00,58,4.20
2013,04,24,00,59,4.20
2013,04,24,01,00,4.20
2013,04,24,01,01,4.20
2013,04,24,01,02,4.10
2013,04,24,01,03,4.10
2013,04,24,01,04,4.10
2013,04,24,01,05,4.10
2013,04,24,01,06,4.10
2013,04,24,01,07,4.10
2013,04,24,01,08,4.10
2013,04,24,01,09,4.10
2013,04,24,01,10,4.10
2013,04,24,01,11,4.10
2013,04,24,01,12,4.10
2013,04,24,01,13,4.10
2013,04,24,01,14,4.10
2013,04,24,01,15,4.10
2013,04,24,01,16,4.10
2013,04,24,01,17,4.10
2013,04,24,01,18,4.10
2013,04,24,01,19,4.10
2013,04,24,01,20,4.10
2013,04,24,01,21,4.10
2013,04,24,01,22,4.10
2013,04,24,01,23,4.10
2013,04,24,01,24,4.10
2013,04,24,01,25,4.10
2013,04,24,01,26,4.10
2013,04,24,01,27,4.10
2013,04,24,01,28,4.10
2013,04,24,01,29,4.00
2013,04,24,01,30,4.00
2013,04,24,01,31,4.00
2013,04,24,01,32,4.00
2013,04,24,01,33,3.90
2013,04,24,01,34,3.90
2013,04,24,01,35,3.90
2013,04,24,01,36,3.90
2013,04,24,01,37,3.90
2013,04,24,01,38,3.90
2013,04,24,01,39,3.90
2013,04,24,01,40,3.90
2013,04,24,01,41,3.90
2013,04,24,01,42,3.80
2013,04,24,01,43,3.80
2013,04,24,01,44,3.80
2013,04,24,01,45,3.80
2013,04,24,01,46,3.80
2013,04,24,01,47,3.80
2013,04,24,01,48,3.80
2013,04,24,01,49,3.80
2013,04,24,01,50,3.80
2013,04,24,01,51,3.80
2013,04,24,01,52,3.80
2013,04,24,01,53,3.70
2013,04,24,01,54,3.70
2013,04,24,01,55,3.70
2013,04,24,01,56,3.70
2013,04,24,01,57,3.70
2013,04,24,01,58,3.70
2013,04,24,01,59,3.70
2013,04,24,02,00,3.70
2013,04,24,02,01,3.70
2013,04,24,02,02,3.70
2013,04,24,02,03,3.70
2013,04,24,02,04,3.60
2013,04,24,02,05,3.60
2013,04,24,02,06,3.60
2013,04,24,02,07,3.60
2013,04,24,02,08,3.60
2013,04,24,02,09,3.60
2013,04,24,02,10,3.60
2013,04,24,02,11,3.60
2013,04,24,02,12,3.60
2013,04,24,02,13,3.60
2013,04,24,02,14,3.60
2013,04,24,02,15,3.60
2013,04,24,02,16,3.60
2013,04,24,02,17,3.50
2013,04,24,02,18,3.50
2013,04,24,02,19,3.50
2013,04,24,02,20,3.50
2013,04,24,02,21,3.50
2013,04,24,02,22,3.50
2013,04,24,02,23,3.50
2013,04,24,02,24,3.50
2013,04,24,02,25,3.50
2013,04,24,02,26,3.50
2013,04,24,02,27,3.50
2013,04,24,02,28,3.50
2013,04,24,02,29,3.50
2013,04,24,02,30,3.50
2013,04,24,02,31,3.50
2013,04,24,02,32,3.50
2013,04,24,02,33,3.40
2013,04,24,02,34,3.40
2013,04,24,02,35,3.40
2013,04,24,02,36,3.40
2013,04,24,02,37,3.40
2013,04,24,02,38,3.40
2013,04,24,02,39,3.40
2013,04,24,02,40,3.40
2013,04,24,02,41,3.40
2013,04,24,02,42,3.40
2013,04,24,02,43,3.40
2013,04,24,02,44,3.40
2013,04,24,02,45,3.40
2013,04,24,02,46,3.40
2013,04,24,02,47,3.40
2013,04,24,02,48,3.40
2013,04,24,02,49,3.40
2013,04,24,02,50,3.40
2013,04,24,02,51,3.40
2013,04,24,02,52,3.40
2013,04,24,02,53,3.40
2013,04,24,02,54,3.40
2013,04,24,02,55,3.50
2013,04,24,02,56,3.50
2013,04,24,02,57,3.50
2013,04,24,02,58,3.50
2013,04,24,02,59,3.50
2013,04,24,03,00,3.50
2013,04,24,03,01,3.50
2013,04,24,03,02,3.50
2013,04,24,03,03,3.60
2013,04,24,03,04,3.60
2013,04,24,03,05,3.60
2013,04,24,03,06,3.60
2013,04,24,03,07,3.60
2013,04,24,03,08,3.60
2013,04,24,03,09,3.60
2013,04,24,03,10,3.60
2013,04,24,03,11,3.60
2013,04,24,03,12,3.60
2013,04,24,03,13,3.60
2013,04,24,03,14,3.60
2013,04,24,03,15,3.60
2013,04,24,03,16,3.60
2013,04,24,03,17,3.60
2013,04,24,03,18,3.60
2013,04,24,03,19,3.60
2013,04,24,03,20,3.60
2013,04,24,03,21,3.50
2013,04,24,03,22,3.50
2013,04,24,03,23,3.50
2013,04,24,03,24,3.50
2013,04,24,03,25,3.50
2013,04,24,03,26,3.50
2013,04,24,03,27,3.50
2013,04,24,03,28,3.50
2013,04,24,03,29,3.50
2013,04,24,03,30,3.50
2013,04,24,03,31,3.40
2013,04,24,03,32,3.40
2013,04,24,03,33,3.40
2013,04,24,03,34,3.40
2013,04,24,03,35,3.40
2013,04,24,03,36,3.40
2013,04,24,03,37,3.40
2013,04,24,03,38,3.40
2013,04,24,03,39,3.30
2013,04,24,03,40,3.30
2013,04,24,03,41,3.30
2013,04,24,03,42,3.30
2013,04,24,03,43,3.30
2013,04,24,03,44,3.30
2013,04,24,03,45,3.30
2013,04,24,03,46,3.30
2013,04,24,03,47,3.30
2013,04,24,03,48,3.30
2013,04,24,03,49,3.30
2013,04,24,03,50,3.30
2013,04,24,03,51,3.30
2013,04,24,03,52,3.30
2013,04,24,03,53,3.30
2013,04,24,03,54,3.30
2013,04,24,03,55,3.20
2013,04,24,03,56,3.20
2013,04,24,03,57,3.20
2013,04,24,03,58,3.20
2013,04,24,03,59,3.20
2013,04,24,04,00,3.20
2013,04,24,04,01,3.20
2013,04,24,04,02,3.20
2013,04,24,04,03,3.20
2013,04,24,04,04,3.20
2013,04,24,04,05,3.20
2013,04,24,04,06,3.20
2013,04,24,04,07,3.20
2013,04,24,04,08,3.20
2013,04,24,04,09,3.20
2013,04,24,04,10,3.20
2013,04,24,04,11,3.20
2013,04,24,04,12,3.20
2013,04,24,04,13,3.20
2013,04,24,04,14,3.20
2013,04,24,04,15,3.10
2013,04,24,04,16,3.10
2013,04,24,04,17,3.10
2013,04,24,04,18,3.10
2013,04,24,04,19,3.10
2013,04,24,04,20,3.00
2013,04,24,04,21,3.00
2013,04,24,04,22,3.00
2013,04,24,04,23,3.00
2013,04,24,04,24,3.00
2013,04,24,04,25,3.00
2013,04,24,04,26,3.00
2013,04,24,04,27,3.00
2013,04,24,04,28,3.00
2013,04,24,04,29,3.00
2013,04,24,04,30,3.00
2013,04,24,04,31,3.00
2013,04,24,04,32,3.00
2013,04,24,04,33,3.00
2013,04,24,04,34,2.90
2013,04,24,04,35,2.90
2013,04,24,04,36,2.90
2013,04,24,04,37,2.90
2013,04,24,04,38,2.90
2013,04,24,04,39,2.90
2013,04,24,04,40,2.90
2013,04,24,04,41,2.90
2013,04,24,04,42,2.90
2013,04,24,04,43,2.90
2013,04,24,04,44,2.90
2013,04,24,04,45,2.90
2013,04,24,04,46,2.90
2013,04,24,04,47,2.90
2013,04,24,04,48,2.90
2013,04,24,04,49,2.90
2013,04,24,04,50,2.90
2013,04,24,04,51,2.90
2013,04,24,04,52,2.90
2013,04,24,04,53,2.90
2013,04,24,04,54,2.80
2013,04,24,04,55,2.80
2013,04,24,04,56,2.80
2013,04,24,04,57,2.80
2013,04,24,04,58,2.80
2013,04,24,04,59,2.80
2013,04,24,05,00,2.70
2013,04,24,05,01,2.70
2013,04,24,05,02,2.70
2013,04,24,05,03,2.70
2013,04,24,05,04,2.70
2013,04,24,05,05,2.70
2013,04,24,05,06,2.70
2013,04,24,05,07,2.70
2013,04,24,05,08,2.70
2013,04,24,05,09,2.70
2013,04,24,05,10,2.70
2013,04,24,05,11,2.70
2013,04,24,05,12,2.70
2013,04,24,05,13,2.70
2013,04,24,05,14,2.70
2013,04,24,05,15,2.70
2013,04,24,05,16,2.70
2013,04,24,05,17,2.70
2013,04,24,05,18,2.60
2013,04,24,05,19,2.60
2013,04,24,05,20,2.60
2013,04,24,05,21,2.60
2013,04,24,05,22,2.60
2013,04,24,05,23,2.60
2013,04,24,05,24,2.60
2013,04,24,05,25,2.60
2013,04,24,05,26,2.60
2013,04,24,05,27,2.60
2013,04,24,05,28,2.60
2013,04,24,05,29,2.60
2013,04,24,05,30,2.60
2013,04,24,05,31,2.60
2013,04,24,05,32,2.70
2013,04,24,05,33,2.70
2013,04,24,05,34,2.70
2013,04,24,05,35,2.70
2013,04,24,05,36,2.60
2013,04,24,05,37,2.60
2013,04,24,05,38,2.60
2013,04,24,05,39,2.60
2013,04,24,05,40,2.60
2013,04,24,05,41,2.60
2013,04,24,05,42,2.60
2013,04,24,05,43,2.60
2013,04,24,05,44,2.60
2013,04,24,05,45,2.60
2013,04,24,05,46,2.60
2013,04,24,05,47,2.60
2013,04,24,05,48,2.60
2013,04,24,05,49,2.60
2013,04,24,05,50,2.60
2013,04,24,05,51,2.60
2013,04,24,05,52,2.60
2013,04,24,05,53,2.60
2013,04,24,05,54,2.60
2013,04,24,05,55,2.60
2013,04,24,05,56,2.60
2013,04,24,05,57,2.60
2013,04,24,05,58,2.60
2013,04,24,05,59,2.60
2013,04,24,06,00,2.60
2013,04,24,06,01,2.60
2013,04,24,06,02,2.60
2013,04,24,06,03,2.60
2013,04,24,06,04,2.60
2013,04,24,06,05,2.60
2013,04,24,06,06,2.60
2013,04,24,06,07,2.60
2013,04,24,06,08,2.60
2013,04,24,06,09,2.60
2013,04,24,06,10,2.60
2013,04,24,06,11,2.60
2013,04,24,06,12,2.60
2013,04,24,06,13,2.60
2013,04,24,06,14,2.60
2013,04,24,06,15,2.60
2013,04,24,06,16,2.60
2013,04,24,06,17,2.60
2013,04,24,06,18,2.60
2013,04,24,06,19,2.60
2013,04,24,06,20,2.60
2013,04,24,06,21,2.60
2013,04,24,06,22,2.60
2013,04,24,06,23,2.60
2013,04,24,06,24,2.60
2013,04,24,06,25,2.60
2013,04,24,06,26,2.60
2013,04,24,06,27,2.60
2013,04,24,06,28,2.70
2013,04,24,06,29,2.70
2013,04,24,06,30,2.70
2013,04,24,06,31,2.70
2013,04,24,06,32,2.70
2013,04,24,06,33,2.70
2013,04,24,06,34,2.70
2013,04,24,06,35,2.70
2013,04,24,06,36,2.70
2013,04,24,06,37,2.70
2013,04,24,06,38,2.70
2013,04,24,06,39,2.70
2013,04,24,06,40,2.70
2013,04,24,06,41,2.70
2013,04,24,06,42,2.70
2013,04,24,06,43,2.70
2013,04,24,06,44,2.70
2013,04,24,06,45,2.70
2013,04,24,06,46,2.70
2013,04,24,06,47,2.80
2013,04,24,06,48,2.80
2013,04,24,06,49,2.80
2013,04,24,06,50,2.80
2013,04,24,06,51,2.80
2013,04,24,06,52,2.80
2013,04,24,06,53,2.80
2013,04,24,06,54,2.80
2013,04,24,06,55,2.80
2013,04,24,06,56,2.90
2013,04,24,06,57,2.90
2013,04,24,06,58,2.90
2013,04,24,06,59,2.90
2013,04,24,07,00,2.90
2013,04,24,07,01,3.00
2013,04,24,07,02,3.00
2013,04,24,07,03,3.00
2013,04,24,07,04,3.00
2013,04,24,07,05,3.10
2013,04,24,07,06,3.10
2013,04,24,07,07,3.10
2013,04,24,07,08,3.20
2013,04,24,07,09,3.20
2013,04,24,07,10,3.30
2013,04,24,07,11,3.40
2013,04,24,07,12,3.40
2013,04,24,07,13,3.50
2013,04,24,07,14,3.60
2013,04,24,07,15,3.60
2013,04,24,07,16,3.70
2013,04,24,07,17,3.80
2013,04,24,07,18,3.90
2013,04,24,07,19,3.90
2013,04,24,07,20,4.00
2013,04,24,07,21,4.10
2013,04,24,07,22,4.10
2013,04,24,07,23,4.20
2013,04,24,07,24,4.20
2013,04,24,07,25,4.30
2013,04,24,07,26,4.40
2013,04,24,07,27,4.50
2013,04,24,07,28,4.50
2013,04,24,07,29,4.60
2013,04,24,07,30,4.70
2013,04,24,07,31,4.80
2013,04,24,07,32,4.90
2013,04,24,07,33,5.00
2013,04,24,07,34,5.10
2013,04,24,07,35,5.10
2013,04,24,07,36,5.20
2013,04,24,07,37,5.30
2013,04,24,07,38,5.30
2013,04,24,07,39,5.40
2013,04,24,07,40,5.50
2013,04,24,07,41,5.50
2013,04,24,07,42,5.60
2013,04,24,07,43,5.70
2013,04,24,07,44,5.70
2013,04,24,07,45,5.80
2013,04,24,07,46,5.90
2013,04,24,07,47,5.90
2013,04,24,07,48,6.00
2013,04,24,07,49,6.00
2013,04,24,07,50,6.10
2013,04,24,07,51,6.20
2013,04,24,07,52,6.30
2013,04,24,07,53,6.40
2013,04,24,07,54,6.50
2013,04,24,07,55,6.50
2013,04,24,07,56,6.60
2013,04,24,07,57,6.70
2013,04,24,07,58,6.80
2013,04,24,07,59,7.00
2013,04,24,08,00,7.10
2013,04,24,08,01,7.20
2013,04,24,08,02,7.30
2013,04,24,08,03,7.50
2013,04,24,08,04,7.60
2013,04,24,08,05,7.70
2013,04,24,08,06,7.80
2013,04,24,08,07,7.90
2013,04,24,08,08,8.00
2013,04,24,08,09,8.10
2013,04,24,08,10,8.20
2013,04,24,08,11,8.30
2013,04,24,08,12,8.40
2013,04,24,08,13,8.40
2013,04,24,08,14,8.50
2013,04,24,08,15,8.50
2013,04,24,08,16,8.60
2013,04,24,08,17,8.60
2013,04,24,08,18,8.70
2013,04,24,08,19,8.80
2013,04,24,08,20,8.90
2013,04,24,08,21,8.90
2013,04,24,08,22,9.00
2013,04,24,08,23,9.10
2013,04,24,08,24,9.20
2013,04,24,08,25,9.20
2013,04,24,08,26,9.30
2013,04,24,08,27,9.40
2013,04,24,08,28,9.50
2013,04,24,08,29,9.60
2013,04,24,08,30,9.60
2013,04,24,08,31,9.70
2013,04,24,08,32,9.80
2013,04,24,08,33,9.90
2013,04,24,08,34,9.90
2013,04,24,08,35,10.00
2013,04,24,08,36,10.10
2013,04,24,08,37,10.20
2013,04,24,08,38,10.30
2013,04,24,08,39,10.40
2013,04,24,08,40,10.50
2013,04,24,08,41,10.50
2013,04,24,08,42,10.60
2013,04,24,08,43,10.60
2013,04,24,08,44,10.70
2013,04,24,08,45,10.70
2013,04,24,08,46,10.70
2013,04,24,08,47,10.80
2013,04,24,08,48,10.80
2013,04,24,08,49,10.90
2013,04,24,08,50,10.90
2013,04,24,08,51,11.00
2013,04,24,08,52,11.10
2013,04,24,08,53,11.20
2013,04,24,08,54,11.20
2013,04,24,08,55,11.30
2013,04,24,08,56,11.30
2013,04,24,08,57,11.40
2013,04,24,08,58,11.50
2013,04,24,08,59,11.60
2013,04,24,09,00,11.70
2013,04,24,09,01,11.70
2013,04,24,09,02,11.80
2013,04,24,09,03,11.80
2013,04,24,09,04,11.90
2013,04,24,09,05,11.90
2013,04,24,09,06,12.00
2013,04,24,09,07,12.00
2013,04,24,09,08,12.10
2013,04,24,09,09,12.20
2013,04,24,09,10,12.30
2013,04,24,09,11,12.50
2013,04,24,09,12,12.60
2013,04,24,09,13,12.70
2013,04,24,09,14,12.80
2013,04,24,09,15,12.90
2013,04,24,09,16,13.00
2013,04,24,09,17,13.10
2013,04,24,09,18,13.20
2013,04,24,09,19,13.30
2013,04,24,09,20,13.40
2013,04,24,09,21,13.50
2013,04,24,09,22,13.60
2013,04,24,09,23,13.70
2013,04,24,09,24,13.70
2013,04,24,09,25,13.80
2013,04,24,09,26,13.80
2013,04,24,09,27,13.80
2013,04,24,09,28,13.90
2013,04,24,09,29,14.00
2013,04,24,09,30,14.10
2013,04,24,09,31,14.10
2013,04,24,09,32,14.20
2013,04,24,09,33,14.30
2013,04,24,09,34,14.30
2013,04,24,09,35,14.40
2013,04,24,09,36,14.40
2013,04,24,09,37,14.50
2013,04,24,09,38,14.50
2013,04,24,09,39,14.50
2013,04,24,09,40,14.50
2013,04,24,09,41,14.50
2013,04,24,09,42,14.50
2013,04,24,09,43,14.60
2013,04,24,09,44,14.60
2013,04,24,09,45,14.50
2013,04,24,09,46,14.50
2013,04,24,09,47,14.40
2013,04,24,09,48,14.40
2013,04,24,09,49,14.30
2013,04,24,09,50,14.30
2013,04,24,09,51,14.30
2013,04,24,09,52,14.30
2013,04,24,09,53,14.20
2013,04,24,09,54,14.20
2013,04,24,09,55,14.20
2013,04,24,09,56,14.10
2013,04,24,09,57,14.10
2013,04,24,09,58,14.00
2013,04,24,09,59,14.00
2013,04,24,10,00,14.00
2013,04,24,10,01,13.90
2013,04,24,10,02,13.80
2013,04,24,10,03,13.70
2013,04,24,10,04,13.70
2013,04,24,10,05,13.70
2013,04,24,10,06,13.70
2013,04,24,10,07,13.70
2013,04,24,10,08,13.70
2013,04,24,10,09,13.80
2013,04,24,10,10,13.80
2013,04,24,10,11,13.80
2013,04,24,10,12,13.90
2013,04,24,10,13,14.10
2013,04,24,10,14,14.30
2013,04,24,10,15,14.50
2013,04,24,10,16,14.70
2013,04,24,10,17,14.80
2013,04,24,10,18,14.90
2013,04,24,10,19,15.00
2013,04,24,10,20,15.00
2013,04,24,10,21,15.10
2013,04,24,10,22,15.10
2013,04,24,10,23,15.10
2013,04,24,10,24,15.10
2013,04,24,10,25,15.10
2013,04,24,10,26,15.10
2013,04,24,10,27,15.20
2013,04,24,10,28,15.20
2013,04,24,10,29,15.30
2013,04,24,10,30,15.40
2013,04,24,10,31,15.40
2013,04,24,10,32,15.50
2013,04,24,10,33,15.60
2013,04,24,10,34,15.60
2013,04,24,10,35,15.60
2013,04,24,10,36,15.60
2013,04,24,10,37,15.60
2013,04,24,10,38,15.60
2013,04,24,10,39,15.60
2013,04,24,10,40,15.50
2013,04,24,10,41,15.30
2013,04,24,10,42,15.10
2013,04,24,10,43,15.00
2013,04,24,10,44,15.00
2013,04,24,10,45,15.00
2013,04,24,10,46,14.90
2013,04,24,10,47,14.90
2013,04,24,10,48,14.90
2013,04,24,10,49,15.00
2013,04,24,10,50,15.00
2013,04,24,10,51,15.00
2013,04,24,10,52,15.00
2013,04,24,10,53,15.00
2013,04,24,10,54,15.00
2013,04,24,10,55,15.10
2013,04,24,10,56,15.10
2013,04,24,10,57,15.10
2013,04,24,10,58,15.10
2013,04,24,10,59,15.10
2013,04,24,11,00,15.20
2013,04,24,11,01,15.20
2013,04,24,11,02,15.30
2013,04,24,11,03,15.40
2013,04,24,11,04,15.40
2013,04,24,11,05,15.40
2013,04,24,11,06,15.40
2013,04,24,11,07,15.30
2013,04,24,11,08,15.30
2013,04,24,11,09,15.30
2013,04,24,11,10,15.30
2013,04,24,11,11,15.20
2013,04,24,11,12,15.10
2013,04,24,11,13,15.20
2013,04,24,11,14,15.10
2013,04,24,11,15,15.10
2013,04,24,11,16,15.00
2013,04,24,11,17,15.00
2013,04,24,11,18,15.00
2013,04,24,11,19,15.00
2013,04,24,11,20,15.00
2013,04,24,11,21,15.00
2013,04,24,11,22,15.00
2013,04,24,11,23,15.00
2013,04,24,11,24,15.00
2013,04,24,11,25,15.00
2013,04,24,11,26,15.00
2013,04,24,11,27,15.00
2013,04,24,11,28,15.10
2013,04,24,11,29,15.20
2013,04,24,11,30,15.20
2013,04,24,11,31,15.30
2013,04,24,11,32,15.40
2013,04,24,11,33,15.40
2013,04,24,11,34,15.40
2013,04,24,11,35,15.50
2013,04,24,11,36,15.50
2013,04,24,11,37,15.50
2013,04,24,11,38,15.40
2013,04,24,11,39,15.50
2013,04,24,11,40,15.60
2013,04,24,11,41,15.70
2013,04,24,11,42,15.80
2013,04,24,11,43,15.80
2013,04,24,11,44,15.80
2013,04,24,11,45,15.70
2013,04,24,11,46,15.50
2013,04,24,11,47,15.40
2013,04,24,11,48,15.20
2013,04,24,11,49,15.10
2013,04,24,11,50,15.20
2013,04,24,11,51,15.20
2013,04,24,11,52,15.30
2013,04,24,11,53,15.40
2013,04,24,11,54,15.50
2013,04,24,11,55,15.70
2013,04,24,11,56,15.70
2013,04,24,11,57,15.70
2013,04,24,11,58,15.60
2013,04,24,11,59,15.50
2013,04,24,12,00,15.40
2013,04,24,12,01,15.40
2013,04,24,12,02,15.40
2013,04,24,12,03,15.40
2013,04,24,12,04,15.40
2013,04,24,12,05,15.40
2013,04,24,12,06,15.50
2013,04,24,12,07,15.50
2013,04,24,12,08,15.50
2013,04,24,12,09,15.40
2013,04,24,12,10,15.40
2013,04,24,12,11,15.40
2013,04,24,12,12,15.40
2013,04,24,12,13,15.30
2013,04,24,12,14,15.20
2013,04,24,12,15,15.20
2013,04,24,12,16,15.10
2013,04,24,12,17,15.00
2013,04,24,12,18,15.10
2013,04,24,12,19,15.20
2013,04,24,12,20,15.30
2013,04,24,12,21,15.40
2013,04,24,12,22,15.40
2013,04,24,12,23,15.50
2013,04,24,12,24,15.50
2013,04,24,12,25,15.40
2013,04,24,12,26,15.40
2013,04,24,12,27,15.50
2013,04,24,12,28,15.50
2013,04,24,12,29,15.60
2013,04,24,12,30,15.60
2013,04,24,12,31,15.60
2013,04,24,12,32,15.50
2013,04,24,12,33,15.50
2013,04,24,12,34,15.50
2013,04,24,12,35,15.50
2013,04,24,12,36,15.50
2013,04,24,12,37,15.50
2013,04,24,12,38,15.50
2013,04,24,12,39,15.40
2013,04,24,12,40,15.30
2013,04,24,12,41,15.30
2013,04,24,12,42,15.40
2013,04,24,12,43,15.50
2013,04,24,12,44,15.60
2013,04,24,12,45,15.80
2013,04,24,12,46,15.90
2013,04,24,12,47,16.00
2013,04,24,12,48,16.00
2013,04,24,12,49,16.00
2013,04,24,12,50,16.10
2013,04,24,12,51,16.20
2013,04,24,12,52,16.30
2013,04,24,12,53,16.30
2013,04,24,12,54,16.30
2013,04,24,12,55,16.40
2013,04,24,12,56,16.40
2013,04,24,12,57,16.30
2013,04,24,12,58,16.30
2013,04,24,12,59,16.20
2013,04,24,13,00,16.10
2013,04,24,13,01,16.10
2013,04,24,13,02,16.10
2013,04,24,13,03,16.20
2013,04,24,13,04,16.20
2013,04,24,13,05,16.20
2013,04,24,13,06,16.20
2013,04,24,13,07,16.20
2013,04,24,13,08,16.20
2013,04,24,13,09,16.30
2013,04,24,13,10,16.40
2013,04,24,13,11,16.40
2013,04,24,13,12,16.50
2013,04,24,13,13,16.60
2013,04,24,13,14,16.60
2013,04,24,13,15,16.60
2013,04,24,13,16,16.60
2013,04,24,13,17,16.70
2013,04,24,13,18,16.70
2013,04,24,13,19,16.70
2013,04,24,13,20,16.70
2013,04,24,13,21,16.70
2013,04,24,13,22,16.80
2013,04,24,13,23,16.80
2013,04,24,13,24,16.80
2013,04,24,13,25,16.80
2013,04,24,13,26,16.80
2013,04,24,13,27,16.80
2013,04,24,13,28,16.90
2013,04,24,13,29,16.90
2013,04,24,13,30,16.90
2013,04,24,13,31,16.80
2013,04,24,13,32,16.70
2013,04,24,13,33,16.70
2013,04,24,13,34,16.70
2013,04,24,13,35,16.70
2013,04,24,13,36,16.70
2013,04,24,13,37,16.70
2013,04,24,13,38,16.70
2013,04,24,13,39,16.70
2013,04,24,13,40,16.70
2013,04,24,13,41,16.70
2013,04,24,13,42,16.70
2013,04,24,13,43,16.70
2013,04,24,13,44,16.60
2013,04,24,13,45,16.60
2013,04,24,13,46,16.60
2013,04,24,13,47,16.60
2013,04,24,13,48,16.60
2013,04,24,13,49,16.60
2013,04,24,13,50,16.50
2013,04,24,13,51,16.50
2013,04,24,13,52,16.60
2013,04,24,13,53,16.50
2013,04,24,13,54,16.50
2013,04,24,13,55,16.50
2013,04,24,13,56,16.50
2013,04,24,13,57,16.60
2013,04,24,13,58,16.60
2013,04,24,13,59,16.60
2013,04,24,14,00,16.60
2013,04,24,14,01,16.60
2013,04,24,14,02,16.50
2013,04,24,14,03,16.60
2013,04,24,14,04,16.60
2013,04,24,14,05,16.60
2013,04,24,14,06,16.70
2013,04,24,14,07,16.70
2013,04,24,14,08,16.80
2013,04,24,14,09,16.80
2013,04,24,14,10,16.70
2013,04,24,14,11,16.70
2013,04,24,14,12,16.70
2013,04,24,14,13,16.70
2013,04,24,14,14,16.70
2013,04,24,14,15,16.70
2013,04,24,14,16,16.70
2013,04,24,14,17,16.70
2013,04,24,14,18,16.60
2013,04,24,14,19,16.60
2013,04,24,14,20,16.60
2013,04,24,14,21,16.60
2013,04,24,14,22,16.50
2013,04,24,14,23,16.50
2013,04,24,14,24,16.50
2013,04,24,14,25,16.50
2013,04,24,14,26,16.50
2013,04,24,14,27,16.60
2013,04,24,14,28,16.60
2013,04,24,14,29,16.60
2013,04,24,14,30,16.60
2013,04,24,14,31,16.60
2013,04,24,14,32,16.60
2013,04,24,14,33,16.70
2013,04,24,14,34,16.80
2013,04,24,14,35,16.80
2013,04,24,14,36,16.80
2013,04,24,14,37,16.70
2013,04,24,14,38,16.70
2013,04,24,14,39,16.70
2013,04,24,14,40,16.70
2013,04,24,14,41,16.70
2013,04,24,14,42,16.70
2013,04,24,14,43,16.70
2013,04,24,14,44,16.70
2013,04,24,14,45,16.70
2013,04,24,14,46,16.70
2013,04,24,14,47,16.70
2013,04,24,14,48,16.70
2013,04,24,14,49,16.70
2013,04,24,14,50,16.80
2013,04,24,14,51,16.80
2013,04,24,14,52,16.80
2013,04,24,14,53,16.90
2013,04,24,14,54,16.90
2013,04,24,14,55,17.00
2013,04,24,14,56,17.00
2013,04,24,14,57,16.90
2013,04,24,14,58,16.90
2013,04,24,14,59,16.90
2013,04,24,15,00,16.90
2013,04,24,15,01,16.80
2013,04,24,15,02,16.80
2013,04,24,15,03,16.80
2013,04,24,15,04,16.80
2013,04,24,15,05,16.80
2013,04,24,15,06,16.70
2013,04,24,15,07,16.70
2013,04,24,15,08,16.70
2013,04,24,15,09,16.70
2013,04,24,15,10,16.80
2013,04,24,15,11,16.80
2013,04,24,15,12,16.80
2013,04,24,15,13,16.80
2013,04,24,15,14,16.80
2013,04,24,15,15,16.80
2013,04,24,15,16,16.80
2013,04,24,15,17,16.90
2013,04,24,15,18,16.90
2013,04,24,15,19,17.00
2013,04,24,15,20,17.00
2013,04,24,15,21,17.00
2013,04,24,15,22,17.00
2013,04,24,15,23,17.10
2013,04,24,15,24,17.10
2013,04,24,15,25,17.00
2013,04,24,15,26,17.00
2013,04,24,15,27,17.10
2013,04,24,15,28,17.10
2013,04,24,15,29,17.10
2013,04,24,15,30,17.10
2013,04,24,15,31,17.20
2013,04,24,15,32,17.20
2013,04,24,15,33,17.20
2013,04,24,15,34,17.10
2013,04,24,15,35,17.00
2013,04,24,15,36,16.90
2013,04,24,15,37,16.90
2013,04,24,15,38,16.80
2013,04,24,15,39,16.80
2013,04,24,15,40,16.80
2013,04,24,15,41,16.80
2013,04,24,15,42,16.70
2013,04,24,15,43,16.80
2013,04,24,15,44,16.80
2013,04,24,15,45,16.80
2013,04,24,15,46,16.80
2013,04,24,15,47,16.80
2013,04,24,15,48,16.80
2013,04,24,15,49,16.70
2013,04,24,15,50,16.70
2013,04,24,15,51,16.70
2013,04,24,15,52,16.70
2013,04,24,15,53,16.70
2013,04,24,15,54,16.80
2013,04,24,15,55,16.80
2013,04,24,15,56,16.90
2013,04,24,15,57,17.00
2013,04,24,15,58,17.10
2013,04,24,15,59,17.10
2013,04,24,16,00,17.00
2013,04,24,16,01,17.00
2013,04,24,16,02,17.00
2013,04,24,16,03,17.00
2013,04,24,16,04,17.10
2013,04,24,16,05,17.00
2013,04,24,16,06,17.00
2013,04,24,16,07,16.90
2013,04,24,16,08,16.90
2013,04,24,16,09,16.90
2013,04,24,16,10,16.90
2013,04,24,16,11,16.90
2013,04,24,16,12,16.90
2013,04,24,16,13,16.90
2013,04,24,16,14,16.90
2013,04,24,16,15,16.80
2013,04,24,16,16,16.80
2013,04,24,16,17,16.70
2013,04,24,16,18,16.70
2013,04,24,16,19,16.70
2013,04,24,16,20,16.60
2013,04,24,16,21,16.60
2013,04,24,16,22,16.60
2013,04,24,16,23,16.60
2013,04,24,16,24,16.60
2013,04,24,16,25,16.50
2013,04,24,16,26,16.50
2013,04,24,16,27,16.60
2013,04,24,16,28,16.60
2013,04,24,16,29,16.60
2013,04,24,16,30,16.70
2013,04,24,16,31,16.70
2013,04,24,16,32,16.70
2013,04,24,16,33,16.70
2013,04,24,16,34,16.70
2013,04,24,16,35,16.70
2013,04,24,16,36,16.70
2013,04,24,16,37,16.70
2013,04,24,16,38,16.80
2013,04,24,16,39,16.80
2013,04,24,16,40,16.80
2013,04,24,16,41,16.80
2013,04,24,16,42,16.70
2013,04,24,16,43,16.70
2013,04,24,16,44,16.70
2013,04,24,16,45,16.70
2013,04,24,16,46,16.60
2013,04,24,16,47,16.60
2013,04,24,16,48,16.60
2013,04,24,16,49,16.60
2013,04,24,16,50,16.60
2013,04,24,16,51,16.60
2013,04,24,16,52,16.60
2013,04,24,16,53,16.70
2013,04,24,16,54,16.80
2013,04,24,16,55,16.90
2013,04,24,16,56,16.90
2013,04,24,16,57,17.00
2013,04,24,16,58,17.00
2013,04,24,16,59,17.10
2013,04,24,17,00,17.10
2013,04,24,17,01,17.10
2013,04,24,17,02,17.20
2013,04,24,17,03,17.20
2013,04,24,17,04,17.30
2013,04,24,17,05,17.30
2013,04,24,17,06,17.40
2013,04,24,17,07,17.40
2013,04,24,17,08,17.40
2013,04,24,17,09,17.40
2013,04,24,17,10,17.30
2013,04,24,17,11,17.30
2013,04,24,17,12,17.30
2013,04,24,17,13,17.30
2013,04,24,17,14,17.30
2013,04,24,17,15,17.30
2013,04,24,17,16,17.30
2013,04,24,17,17,17.20
2013,04,24,17,18,17.20
2013,04,24,17,19,17.20
2013,04,24,17,20,17.10
2013,04,24,17,21,17.00
2013,04,24,17,22,17.00
2013,04,24,17,23,17.00
2013,04,24,17,24,17.00
2013,04,24,17,25,17.10
2013,04,24,17,26,17.10
2013,04,24,17,27,17.20
2013,04,24,17,28,17.20
2013,04,24,17,29,17.20
2013,04,24,17,30,17.20
2013,04,24,17,31,17.20
2013,04,24,17,32,17.10
2013,04,24,17,33,17.10
2013,04,24,17,34,17.10
2013,04,24,17,35,17.10
2013,04,24,17,36,17.10
2013,04,24,17,37,17.10
2013,04,24,17,38,17.10
2013,04,24,17,39,17.10
2013,04,24,17,40,17.10
2013,04,24,17,41,17.20